Find Starlink 31883

NORAD ID: 60020 Int'l Des: 2024-111 Owner: SPXS Country: US Constellation: starlink operational
LEOCIRCULAR

当前视图

正在加载3D地球...

About Starlink 31883

Starlink 31883 (NORAD 60020) is a starlink constellation satellite (v2 mini) launched Jun 8, 2024 by SPXS of US. It operates in LEO, CIRCULAR orbit with a mass of 730.00 kg.

即将过境

Passes for default location (London). Set your location on the main map for personalized predictions.

高度历史

Loading altitude history...

两行轨道根数

1 60020U 24111E 26262.53777001 -.00000584 00000-0 -61574-5 0 9992
2 60020 53.1598 254.4344 0001350 90.5402 269.5755 15.34397577128670
Epoch: Sep 19, 2026 • Age: 37 hours

当前状态

高度 469.3 km
远地点 / 近地点 N/A
速度 7.63 km/s
星下点 -21.91°S, 58.3°E
发射日期 Jun 8, 2024
运行时间 2.2 years
类型 internet

技术详情

分类 Payload
质量 730.00 kg
干质量 700.00 kg
长度 0.30 m
跨度 29.00 m
形状 ? Box + pan
制造商 SPXS
平台类型 Starlink V2M
阶段状态 In Orbit
所有者/国家 SPXS/US

Most Searched